User: anonymous   Login
Location: Newark
(34.1333°N, 7.9667°W)
Time: 16:39:19
(UTC+00:00)
Language:

Hubble Space Telescope - Orbit

View from above orbital plane
View from above orbital plane
View from above satellite
View from above satellite

Ground track
Ground track

The orbit data is extracted from the following two-line orbital elements,

1 20580U 90037B   21175.00637101  .00000522  00000-0  20592-4 0  9999
2 20580  28.4710  21.7201 0002803 131.7203  21.6429 15.09665547512259
Epoch (UTC): 24 June 2021 00:09:10
Eccentricity: 0.0002803
inclination: 28.4710°
perigee height: 535 km
apogee height: 539 km
right ascension of ascending node: 21.7201°
argument of perigee: 131.7203°
revolutions per day: 15.09665547
mean anomaly at epoch: 21.6429°
orbit number at epoch: 51225

The dashed part of the orbit path shows where the satellite is in the earth's shadow,  

DLR